Regional Weather Roundup
Issued by NWS

Home | Current Version | Previous Version | Text Only | Print | Product List | Glossary Off
Versions: 1 2 3 4 5 6 7 8 9 10 11 12 13 14 15 16 17 18 19 20 21 22 23 24 25 26 27 28 29 30 31 32 33 34 35 36 37 38 39 40 41 42 43 44 45 46 47 48 49 50

000
ASUS43 KMPX 100410
RWRMN
WEATHER ROUNDUP FOR MINNESOTA
NATIONAL WEATHER SERVICE TWIN CITIES/CHANHASSEN MN
1000 PM CST SAT DEC 09 2017


NOTE: "FAIR" INDICATES FEW OR NO CLOUDS BELOW 12,000 FEET WITH NO
SIGNIFICANT WEATHER AND/OR OBSTRUCTIONS TO VISIBILITY. N/A MEANS
CURRENT SKY AND/OR WEATHER CONDITIONS ARE NOT AVAILABLE.

MNZ060>063-068>070-100500-
   Twin Cities Metro

CITY           SKY/WX    TMP DP  RH WIND       PRES   REMARKS
TWIN CITIES    CLOUDY    23  16  74 S7        29.91F WCI  15
ST PAUL        CLOUDY    23  16  74 S5        29.94F WCI  17
CRYSTAL        CLOUDY    23  13  65 S6        29.90F WCI  16
BLAINE         CLOUDY    25  18  74 S8        29.89S WCI  16
LAKEVILLE      PTCLDY    21  18  86 S8        29.89F WCI  12
EDEN PRAIRIE   CLOUDY    23  16  74 SW13      29.88F WCI  11
SOUTH ST PAUL  CLOUDY    24  15  70 S5        29.92F WCI  18
LAKE ELMO      CLOUDY    23  18  80 S8        29.92F WCI  14
$$
MNZ001>005-007-008-013>017-022>024-027-028-100500-
   Northwest Minnesota

CITY           SKY/WX    TMP DP  RH WIND       PRES   REMARKS
BEMIDJI        CLOUDY    14  12  92 CALM      29.73F
HALLOCK        CLOUDY    27  19  74 NW17      29.79R WCI  14
ROSEAU         CLOUDY    16  10  79 CALM      29.74S
WARROAD        CLOUDY    19  16  86 SE3       29.75S
THIEF RVR FALL CLOUDY    23  20  88 NW12      29.76R WCI  12
CROOKSTON      PTCLDY    27  21  80 N14       29.80R WCI  15
FOSSTON        CLOUDY    19  16  86 SW7       29.75S WCI  10
DETROIT LAKES  CLOUDY    28  23  80 W6        29.76F WCI  22
MOORHEAD       CLOUDY    27  21  80 NW12      29.80S WCI  16
PARK RAPIDS    CLOUDY    17  13  84 S6        29.75F WCI   9
MAHNOMEN       FAIR      20  18  91 SW7       29.75F WCI  11
$$
MNZ006-009>011-018-025>026-100500-
   North Central Minnesota

CITY           SKY/WX    TMP DP  RH WIND       PRES   REMARKS
BAUDETTE       CLOUDY    18  13  80 S6        29.73F WCI  10
FLAG ISLAND    CLOUDY    18  14  86 CALM      29.75R
INTL FALLS     CLOUDY    16  11  80 SE3       29.76F
WASKISH        CLOUDY    19  16  86 CALM      29.74S
BIG FORK       CLOUDY    19  12  73 S3        29.74F
GRAND RAPIDS   CLOUDY    19  13  77 S6        29.79F WCI  11
ORR            CLOUDY    16   9  73 SE3       29.74F
COOK           CLOUDY    16  10  79 CALM      29.77F
WALKER         FAIR      19  14  82 SW7       29.74F WCI   9
$$
MNZ012-019>021-037-100500-
   Northeast Minnesota

CITY           SKY/WX    TMP DP  RH WIND       PRES   REMARKS
DULUTH         CLOUDY    16  13  88 SW9       29.79F WCI   4
ELY            CLOUDY    14  10  85 SW5       29.77F WCI   6
HIBBING        CLOUDY    16  10  77 S3        29.77F
EVELETH        CLOUDY    15  10  79 CALM      29.79F
DULUTH HARBOR  CLOUDY    21  16  79 SW10      29.85F WCI  10
TWO HARBORS    CLOUDY    19  14  79 SW5       29.80F WCI  13
G MARAIS ARPRT CLOUDY     9   3  78 CALM      29.73F
$$
MNZ029>031-032-039>041-046>048-054>057-064-100500-
   West Central Minnesota

CITY           SKY/WX    TMP DP  RH WIND       PRES   REMARKS
FERGUS FALLS   CLEAR     19  16  86 S6        29.82F WCI  11
MORRIS         CLEAR     25  21  86 SW6       29.80F WCI  18
ALEXANDRIA     CLEAR     22  19  89 SW10      29.79F WCI  11
ELBOW LAKE     FAIR      21  19  93 W9        29.81F WCI  11
WADENA         CLEAR     21  18  86 SW9       29.76F WCI  11
GLENWOOD       CLOUDY    21  18  86 SW12      29.81S WCI   9
BENSON         CLOUDY    23  19  86 SW8       29.84F WCI  14
ORTONVILLE     PTCLDY    28  21  74 W5        29.83F WCI  23
MADISON        PTCLDY    34  27  75 W10       29.85F WCI  26
WILLMAR        FAIR      25  19  80 SW12      29.83F WCI  14
$$
MNZ033>034-036-042>043-049>051-058-059-100500-
   Central Minnesota

CITY           SKY/WX    TMP DP  RH WIND       PRES   REMARKS
ST CLOUD       PTCLDY    20  14  77 S8        29.84F WCI  10
SAUK CENTRE    FAIR      22  17  83 SW8       29.81F WCI  12
PAYNESVILLE    CLOUDY    24  19  83 SW9       29.84S WCI  14
AITKIN         CLOUDY    19  12  73 S9        29.79F WCI   9
PINE RIVER     PTCLDY    18  12  79 CALM      29.81F
BRAINERD       PTCLDY    20  13  74 S7        29.79F WCI  11
STAPLES        CLOUDY    16  12  86 S6        29.77F WCI   7
LONG PRAIRIE   FAIR      21  18  86 S10       29.80F WCI  10
LITTLE FALLS   CLEAR     21  12  68 S3        29.83F
LITCHFIELD     CLOUDY    25  19  80 SW3       29.84F
BUFFALO        CLOUDY    23  17  76 S6        29.90R WCI  16
MAPLE LAKE     CLOUDY    23  18  82 CALM      29.88R
HUTCHINSON     CLOUDY    25  20  82 S10G16    29.85F WCI  15
$$
MNZ037-044-045-052-053-100500-
   East Central Minnesota

CITY           SKY/WX    TMP DP  RH WIND       PRES   REMARKS
PRINCETON      MOCLDY    23  16  74 S6        29.86F WCI  16
MORA           CLOUDY    21  14  73 SW9       29.87F WCI  11
CAMBRIDGE      CLOUDY    25  14  63 S6        29.88F WCI  18
RUSH CITY      CLOUDY    22  15  76 S8        29.89F WCI  12
MOOSE LAKE     CLOUDY    21  14  73 SW10      29.81F WCI  10
HINCKLEY       CLOUDY    23  18  80 S12       29.84F WCI  12
CLOQUET        CLOUDY    18  12  79 S3        29.80F
MCGREGOR       CLOUDY    23  16  74 SW7       29.80F WCI  15
$$
MNZ071>073-080-081-089-090-097-098-100500-
   Southwest Minnesota

CITY           SKY/WX    TMP DP  RH WIND       PRES   REMARKS
MONTEVIDEO     CLEAR     25  21  86 W9        29.83F WCI  15
GRANITE FALLS  CLEAR     25  21  86 S9        29.87F WCI  15
CANBY          PTCLDY    32  26  77 W12G18    29.86F WCI  23
MARSHALL       CLOUDY    29  23  78 W18       29.85F WCI  16
REDWOOD FALLS  PTCLDY    24  18  77 S8        29.88F WCI  15
OLIVIA         CLOUDY    27  21  80 SW12      29.84F WCI  16
PIPESTONE      CLOUDY    21  19  93 W7        29.89F WCI  13
WINDOM           N/A     25  12  58 SW15      29.91F WCI  12
WORTHINGTON    CLEAR     24  20  84 SW13      29.92F WCI  12
JACKSON        CLOUDY    25  21  86 MISG      29.94F
TRACY          CLEAR     27  23  85 SW18      29.86F WCI  14
$$
MNZ065>067-074>077-082>085-091>093-100500-
   South Central Minnesota

CITY           SKY/WX    TMP DP  RH WIND       PRES   REMARKS
MANKATO        CLOUDY    23  18  81 S13       29.91F WCI  11
NEW ULM        CLOUDY    25  18  74 S10       29.88F WCI  15
ST JAMES       CLOUDY    25  19  80 S9        29.93F WCI  15
FAIRMONT       CLOUDY    23  19  85 S9        29.96F WCI  13
GLENCOE        CLOUDY    25  20  82 S12       29.85F WCI  14
FARIBAULT      CLOUDY    21  16  79 S9        29.90F WCI  11
WASECA         CLOUDY    23  18  80 S14       29.93F WCI  11
ALBERT LEA     CLOUDY    21  16  79 SW9       29.95F WCI  11
$$
MNZ078>079-086>088-094>096-100500-
   Southeast Minnesota

CITY           SKY/WX    TMP DP  RH WIND       PRES   REMARKS
ROCHESTER      CLOUDY    20  15  81 SW13      29.96F WCI   7
RED WING       CLOUDY    23  12  63 SW7       29.95F WCI  15
STANTON        CLOUDY    23  17  77 S8        29.90F WCI  14
DODGE CENTER   CLOUDY    19  16  86 SW14      29.93F WCI   6
WINONA         LGT SNOW  21  18  86 CALM      30.01F
AUSTIN         CLOUDY    21  16  79 SW10      29.97F WCI  10
PRESTON        CLOUDY    19  13  77 SW6       29.98F WCI  11
$$
ABBREVIATIONS USED IN REMARKS
   TC - TEMPERATURES IN CELSIUS
  WCI - WIND CHILL INDEX
   HX - HEAT INDEX
  VSB - VISIBILITY
$$




USA.gov is the U.S. government's official web portal to all federal, state and local government web resources and services.